Weather in Polevskoj

Russia / Sverdlovsk Oblast     56°26′47″N   60°10′37″E
temp.,
°C
wind,
m/s
gust,
m/s
humid.,
%
clouds,
%
prec.,
mm/h
press.,
hPa
HPBL,
m
9 august, tue
tue923:00+18nnw228796 0.6 101926
02:00+18n118652 0.0 101913
05:00+15n11965 0.1 101911
08:00+19nw11845 0.0 1020142
11:00+25ene235211 0.0 10191243
14:00+27ene23405 0.0 10182142
17:00+27e23377 0.0 10172294
20:00+21se226813 0.0 101815
10 august, wed
wed1023:00+17s227711 0.0 101911
02:00+16sw118534 0.0 101911
05:00+15sw118799 0.0 101911
08:00+20s016740 0.0 1019133
11:00+25sse114591 0.0 10181346
14:00+27sse1137100 0.0 10182150
17:00+27s1138100 0.0 10172198
20:00+21s226664 0.0 101718
11 august, thu
thu1123:00+17sw227578 0.0 101820
02:00+16sw117980 0.0 101711
05:00+15sw227924 0.0 101713
08:00+20sw256722 0.0 1017215
11:00+24wsw345861 0.3 1016901
14:00+26w4546100 0.0 10152109
17:00+20wsw2978100 0.2 1015429
20:00+18wnw4990100 2.8 1014293
12 august, fri
fri1223:00+15wnw31096100 4.3 1016466
02:00+11wnw39973 0.0 1017293
05:00+10wnw4109894 0.0 1018474
08:00+12wnw41291100 0.0 1018535
11:00+17wnw5957100 0.0 10181218
14:00+19wnw6846100 0.0 10171802
17:00+20w584846 0.0 10171753
20:00+17w5106377 0.0 1016901
13 august, sat
sat1323:00+17w5126226 0.0 1016832
02:00+14w513750 0.0 1015478
05:00+14w5148077 0.0 1015514
08:00+16wnw512750 0.0 1016792
11:00+20nw6125110 0.0 10171866
14:00+23nw610403 0.0 10162114
17:00+22nw58410 0.0 10171901
20:00+16nw37656 0.0 1019172